Time,TemperatureF,DewpointF,PressureIn,WindDirection,WindDirectionDegrees,WindSpeedMPH,WindSpeedGustMPH,Humidity,HourlyPrecipIn,Conditions,Clouds,dailyrainin,SolarRadiationWatts/m^2,SoftwareType,DateUTC
2013-05-12 00:01:00,56.0,53.0,-100.00,SE,130,0.0,2.0,90,-99.99,,,0.00,0.000000,,2013-05-12 07:01:00,
2013-05-12 00:11:00,56.0,53.0,-100.00,SE,130,0.0,2.0,90,-99.99,,,0.00,0.000000,,2013-05-12 07:11:00,
2013-05-12 01:41:00,54.0,52.0,-100.00,SW,215,0.0,3.0,91,-99.99,,,0.00,0.000000,,2013-05-12 08:41:00,
2013-05-12 01:53:00,54.0,52.0,-100.00,SW,215,0.0,3.0,91,-99.99,,,0.00,0.000000,,2013-05-12 08:53:00,
2013-05-12 02:01:00,54.0,52.0,-100.00,SW,215,0.0,3.0,91,-99.99,,,0.00,0.000000,,2013-05-12 09:01:00,
2013-05-12 02:11:00,54.0,52.0,-100.00,SW,215,0.0,3.0,91,-99.99,,,0.00,0.000000,,2013-05-12 09:11:00,
2013-05-12 02:42:00,53.0,51.0,-100.00,South,180,1.0,3.0,93,-99.99,,,0.00,0.000000,,2013-05-12 09:42:00,
2013-05-12 02:53:00,53.0,51.0,-100.00,South,180,1.0,3.0,93,-99.99,,,0.00,0.000000,,2013-05-12 09:53:00,
2013-05-12 03:03:00,53.0,51.0,-100.00,South,180,1.0,3.0,93,-99.99,,,0.00,0.000000,,2013-05-12 10:03:00,
2013-05-12 03:12:00,53.0,51.0,-100.00,South,180,1.0,3.0,93,-99.99,,,0.00,0.000000,,2013-05-12 10:12:00,
2013-05-12 03:42:00,55.0,53.0,-100.00,SSW,196,2.0,5.0,93,-99.99,,,0.00,0.000000,,2013-05-12 10:42:00,
2013-05-12 03:52:00,55.0,53.0,-100.00,SSW,196,2.0,5.0,93,-99.99,,,0.00,0.000000,,2013-05-12 10:52:00,
2013-05-12 04:02:00,55.0,53.0,-100.00,SSW,196,2.0,5.0,93,-99.99,,,0.00,0.000000,,2013-05-12 11:02:00,
2013-05-12 04:11:00,55.0,53.0,-100.00,SSW,196,2.0,5.0,93,-99.99,,,0.00,0.000000,,2013-05-12 11:11:00,
2013-05-12 04:42:00,55.0,53.0,-100.00,South,176,1.0,6.0,92,-99.99,,,0.00,0.000000,,2013-05-12 11:42:00,
2013-05-12 04:52:00,55.0,53.0,-100.00,South,176,1.0,6.0,92,-99.99,,,0.00,0.000000,,2013-05-12 11:52:00,
2013-05-12 05:01:00,55.0,53.0,-100.00,South,176,1.0,6.0,92,-99.99,,,0.00,0.000000,,2013-05-12 12:01:00,
2013-05-12 05:11:00,55.0,53.0,-100.00,South,176,1.0,6.0,92,-99.99,,,0.00,0.000000,,2013-05-12 12:11:00,
2013-05-12 06:41:00,55.0,53.0,-100.00,SSW,195,3.0,9.0,94,-99.99,,,0.00,6.040000,,2013-05-12 13:41:00,
2013-05-12 06:52:00,55.0,53.0,-100.00,SSW,195,3.0,9.0,94,-99.99,,,0.00,6.040000,,2013-05-12 13:52:00,
2013-05-12 07:01:00,55.0,53.0,-100.00,SSW,195,3.0,9.0,94,-99.99,,,0.00,6.040000,,2013-05-12 14:01:00,
2013-05-12 07:11:00,55.0,53.0,-100.00,SSW,195,3.0,9.0,94,-99.99,,,0.00,6.040000,,2013-05-12 14:11:00,
2013-05-12 07:42:00,54.0,52.0,-100.00,SSW,202,3.0,7.0,94,-99.99,,,0.00,35.450001,,2013-05-12 14:42:00,
2013-05-12 07:52:00,54.0,52.0,-100.00,SSW,202,3.0,7.0,94,-99.99,,,0.00,35.450001,,2013-05-12 14:52:00,
2013-05-12 08:01:00,54.0,52.0,-100.00,SSW,202,3.0,7.0,94,-99.99,,,0.00,35.450001,,2013-05-12 15:01:00,
2013-05-12 08:11:00,54.0,52.0,-100.00,SSW,202,3.0,7.0,94,-99.99,,,0.00,35.450001,,2013-05-12 15:11:00,
2013-05-12 08:42:00,55.0,54.0,-100.00,South,185,2.0,5.0,95,-99.99,,,0.00,89.839996,,2013-05-12 15:42:00,
2013-05-12 08:53:00,55.0,54.0,-100.00,South,185,2.0,5.0,95,-99.99,,,0.00,89.839996,,2013-05-12 15:53:00,
2013-05-12 09:02:00,55.0,54.0,-100.00,South,185,2.0,5.0,95,-99.99,,,0.00,89.839996,,2013-05-12 16:02:00,
2013-05-12 09:12:00,55.0,54.0,-100.00,South,185,2.0,5.0,95,-99.99,,,0.00,89.839996,,2013-05-12 16:12:00,
2013-05-12 09:42:00,57.0,55.0,-100.00,SSW,201,3.0,10.0,91,-99.99,,,0.00,139.929993,,2013-05-12 16:42:00,
2013-05-12 09:52:00,57.0,55.0,-100.00,SSW,201,3.0,10.0,91,-99.99,,,0.00,139.929993,,2013-05-12 16:52:00,
2013-05-12 10:01:00,57.0,55.0,-100.00,SSW,201,3.0,10.0,91,-99.99,,,0.00,139.929993,,2013-05-12 17:01:00,
2013-05-12 10:11:00,57.0,55.0,-100.00,SSW,201,3.0,10.0,91,-99.99,,,0.00,139.929993,,2013-05-12 17:11:00,
2013-05-12 10:42:00,59.0,55.0,-100.00,SSW,199,3.0,7.0,86,-99.99,,,0.00,192.229996,,2013-05-12 17:42:00,
2013-05-12 10:52:00,59.0,55.0,-100.00,SSW,199,3.0,7.0,86,-99.99,,,0.00,192.229996,,2013-05-12 17:52:00,
2013-05-12 11:01:00,59.0,55.0,-100.00,SSW,199,3.0,7.0,86,-99.99,,,0.00,192.229996,,2013-05-12 18:01:00,
2013-05-12 11:12:00,59.0,55.0,-100.00,SSW,199,3.0,7.0,86,-99.99,,,0.00,192.229996,,2013-05-12 18:12:00,
2013-05-12 11:41:00,61.0,54.0,-100.00,SW,221,4.0,13.0,79,-99.99,,,0.00,378.059998,,2013-05-12 18:41:00,
2013-05-12 11:52:00,61.0,54.0,-100.00,SW,221,4.0,13.0,79,-99.99,,,0.00,378.059998,,2013-05-12 18:52:00,
2013-05-12 12:01:00,61.0,54.0,-100.00,SW,221,4.0,13.0,79,-99.99,,,0.00,378.059998,,2013-05-12 19:01:00,
2013-05-12 12:11:00,61.0,54.0,-100.00,SW,221,4.0,13.0,79,-99.99,,,0.00,378.059998,,2013-05-12 19:11:00,
2013-05-12 12:42:00,63.0,55.0,-100.00,SW,231,4.0,12.0,74,-99.99,,,0.00,666.169983,,2013-05-12 19:42:00,
2013-05-12 12:52:00,63.0,55.0,-100.00,SW,231,4.0,12.0,74,-99.99,,,0.00,666.169983,,2013-05-12 19:52:00,
2013-05-12 13:02:00,63.0,55.0,-100.00,SW,231,4.0,12.0,74,-99.99,,,0.00,666.169983,,2013-05-12 20:02:00,
2013-05-12 13:11:00,63.0,55.0,-100.00,SW,231,4.0,12.0,74,-99.99,,,0.00,666.169983,,2013-05-12 20:11:00,
2013-05-12 13:42:00,62.0,54.0,-100.00,SW,223,5.0,14.0,74,-99.99,,,0.00,693.950012,,2013-05-12 20:42:00,
2013-05-12 13:52:00,62.0,54.0,-100.00,SW,223,5.0,14.0,74,-99.99,,,0.00,693.950012,,2013-05-12 20:52:00,
2013-05-12 14:01:00,62.0,54.0,-100.00,SW,223,5.0,14.0,74,-99.99,,,0.00,693.950012,,2013-05-12 21:01:00,
2013-05-12 14:11:00,62.0,54.0,-100.00,SW,223,5.0,14.0,74,-99.99,,,0.00,693.950012,,2013-05-12 21:11:00,
2013-05-12 14:42:00,63.0,54.0,-100.00,SW,214,5.0,16.0,72,-99.99,,,0.00,568.200012,,2013-05-12 21:42:00,
2013-05-12 14:53:00,63.0,54.0,-100.00,SW,214,5.0,16.0,72,-99.99,,,0.00,568.200012,,2013-05-12 21:53:00,
2013-05-12 15:02:00,63.0,54.0,-100.00,SW,214,5.0,16.0,72,-99.99,,,0.00,568.200012,,2013-05-12 22:02:00,
2013-05-12 15:12:00,63.0,54.0,-100.00,SW,214,5.0,16.0,72,-99.99,,,0.00,568.200012,,2013-05-12 22:12:00,
2013-05-12 15:42:00,63.0,53.0,-100.00,SW,216,4.0,14.0,70,-99.99,,,0.00,397.940002,,2013-05-12 22:42:00,
2013-05-12 15:52:00,63.0,53.0,-100.00,SW,216,4.0,14.0,70,-99.99,,,0.00,397.940002,,2013-05-12 22:52:00,
2013-05-12 16:02:00,63.0,53.0,-100.00,SW,216,4.0,14.0,70,-99.99,,,0.00,397.940002,,2013-05-12 23:02:00,
2013-05-12 16:11:00,63.0,53.0,-100.00,SW,216,4.0,14.0,70,-99.99,,,0.00,397.940002,,2013-05-12 23:11:00,
2013-05-12 16:42:00,63.0,53.0,-100.00,SW,224,5.0,14.0,69,-99.99,,,0.00,643.739990,,2013-05-12 23:42:00,
2013-05-12 16:52:00,63.0,53.0,-100.00,SW,224,5.0,14.0,69,-99.99,,,0.00,643.739990,,2013-05-12 23:52:00,
2013-05-12 17:01:00,63.0,53.0,-100.00,SW,224,5.0,14.0,69,-99.99,,,0.00,643.739990,,2013-05-13 00:01:00,
2013-05-12 17:11:00,63.0,53.0,-100.00,SW,224,5.0,14.0,69,-99.99,,,0.00,643.739990,,2013-05-13 00:11:00,
2013-05-12 18:41:00,59.0,53.0,-100.00,SW,219,4.0,13.0,78,-99.99,,,0.00,129.350006,,2013-05-13 01:41:00,
2013-05-12 18:52:00,59.0,53.0,-100.00,SW,219,4.0,13.0,78,-99.99,,,0.00,129.350006,,2013-05-13 01:52:00,
2013-05-12 19:01:00,59.0,53.0,-100.00,SW,219,4.0,13.0,78,-99.99,,,0.00,129.350006,,2013-05-13 02:01:00,
2013-05-12 19:11:00,59.0,53.0,-100.00,SW,219,4.0,13.0,78,-99.99,,,0.00,129.350006,,2013-05-13 02:11:00,
2013-05-12 19:41:00,58.0,53.0,-100.00,SW,218,3.0,11.0,81,-99.99,,,0.00,49.860001,,2013-05-13 02:41:00,
2013-05-12 19:52:00,58.0,53.0,-100.00,SW,218,3.0,11.0,81,-99.99,,,0.00,49.860001,,2013-05-13 02:52:00,
2013-05-12 20:01:00,58.0,53.0,-100.00,SW,218,3.0,11.0,81,-99.99,,,0.00,49.860001,,2013-05-13 03:01:00,
2013-05-12 20:11:00,58.0,53.0,-100.00,SW,218,3.0,11.0,81,-99.99,,,0.00,49.860001,,2013-05-13 03:11:00,
2013-05-12 20:42:00,58.0,52.0,-100.00,SSW,198,3.0,10.0,82,-99.99,,,0.00,5.580000,,2013-05-13 03:42:00,
2013-05-12 20:53:00,58.0,52.0,-100.00,SSW,198,3.0,10.0,82,-99.99,,,0.00,5.580000,,2013-05-13 03:53:00,
2013-05-12 21:02:00,58.0,52.0,-100.00,SSW,198,3.0,10.0,82,-99.99,,,0.00,5.580000,,2013-05-13 04:02:00,
2013-05-12 21:12:00,58.0,52.0,-100.00,SSW,198,3.0,10.0,82,-99.99,,,0.00,5.580000,,2013-05-13 04:12:00,
2013-05-12 21:41:00,58.0,53.0,-100.00,SSW,200,3.0,9.0,82,-99.99,,,0.00,0.120000,,2013-05-13 04:41:00,
2013-05-12 21:52:00,58.0,53.0,-100.00,SSW,200,3.0,9.0,82,-99.99,,,0.00,0.120000,,2013-05-13 04:52:00,
2013-05-12 22:02:00,58.0,53.0,-100.00,SSW,200,3.0,9.0,82,-99.99,,,0.00,0.120000,,2013-05-13 05:02:00,
2013-05-12 22:11:00,58.0,53.0,-100.00,SSW,200,3.0,9.0,82,-99.99,,,0.00,0.120000,,2013-05-13 05:11:00,
2013-05-12 22:42:00,57.0,53.0,-100.00,SSW,212,3.0,8.0,86,-99.99,,,0.00,0.000000,,2013-05-13 05:42:00,
2013-05-12 22:52:00,57.0,53.0,-100.00,SSW,212,3.0,8.0,86,-99.99,,,0.00,0.000000,,2013-05-13 05:52:00,
2013-05-12 23:01:00,57.0,53.0,-100.00,SSW,212,3.0,8.0,86,-99.99,,,0.00,0.000000,,2013-05-13 06:01:00,
2013-05-12 23:11:00,57.0,53.0,-100.00,SSW,212,3.0,8.0,86,-99.99,,,0.00,0.000000,,2013-05-13 06:11:00,
2013-05-12 23:42:00,56.0,54.0,-100.00,SSW,212,2.0,8.0,91,-99.99,,,0.00,0.000000,,2013-05-13 06:42:00,
2013-05-12 23:52:00,56.0,54.0,-100.00,SSW,212,2.0,8.0,91,-99.99,,,0.00,0.000000,,2013-05-13 06:52:00,